Time,TemperatureF,DewpointF,PressureIn,WindDirection,WindDirectionDegrees,WindSpeedMPH,WindSpeedGustMPH,Humidity,HourlyPrecipIn,Conditions,Clouds,dailyrainin,SoftwareType,DateUTC
2018-01-16 00:02:00,20.7,14.6,30.48,South,171,0.0,12.0,77,0.00,,,0.00,Wunderground v.1.15,2018-01-16 05:02:00,
2018-01-16 00:10:00,20.7,14.6,30.48,South,171,0.0,12.0,77,0.00,,,0.00,Wunderground v.1.15,2018-01-16 05:10:00,
2018-01-16 00:16:00,20.7,14.6,30.48,South,171,0.0,12.0,77,0.00,,,0.00,Wunderground v.1.15,2018-01-16 05:16:00,
2018-01-16 00:26:00,20.8,15.0,30.47,South,171,0.0,12.0,78,0.00,,,0.00,Wunderground v.1.15,2018-01-16 05:26:00,
2018-01-16 00:37:00,20.9,14.8,30.48,South,171,0.0,12.0,77,0.00,,,0.00,Wunderground v.1.15,2018-01-16 05:37:00,
2018-01-16 00:42:00,21.0,14.9,30.47,South,171,0.0,12.0,77,0.00,,,0.00,Wunderground v.1.15,2018-01-16 05:42:00,
2018-01-16 00:50:00,21.1,15.0,30.46,South,171,0.0,12.0,77,0.00,,,0.00,Wunderground v.1.15,2018-01-16 05:50:00,
2018-01-16 01:01:00,21.0,14.9,30.46,South,171,0.0,12.0,77,0.00,,,0.00,Wunderground v.1.15,2018-01-16 06:01:00,
2018-01-16 01:07:00,20.9,15.1,30.47,South,171,0.0,12.0,78,0.00,,,0.00,Wunderground v.1.15,2018-01-16 06:07:00,
2018-01-16 01:12:00,20.9,15.1,30.47,South,171,0.0,12.0,78,0.00,,,0.00,Wunderground v.1.15,2018-01-16 06:12:00,
2018-01-16 01:26:00,20.7,15.5,30.45,South,171,0.0,12.0,80,0.00,,,0.00,Wunderground v.1.15,2018-01-16 06:26:00,
2018-01-16 01:31:00,20.7,15.5,30.47,South,171,0.0,12.0,80,0.00,,,0.00,Wunderground v.1.15,2018-01-16 06:31:00,
2018-01-16 01:53:00,20.7,15.5,30.46,South,171,0.0,12.0,80,0.00,,,0.00,Wunderground v.1.15,2018-01-16 06:53:00,
2018-01-16 01:58:00,20.7,15.5,30.46,South,171,0.0,12.0,80,0.00,,,0.00,Wunderground v.1.15,2018-01-16 06:58:00,
2018-01-16 02:04:00,20.7,15.8,30.47,South,171,0.0,12.0,81,0.00,,,0.00,Wunderground v.1.15,2018-01-16 07:04:00,
2018-01-16 02:15:00,20.8,15.6,30.47,South,171,0.0,12.0,80,0.00,,,0.00,Wunderground v.1.15,2018-01-16 07:15:00,
2018-01-16 02:21:00,20.9,15.7,30.47,South,171,0.0,12.0,80,0.00,,,0.00,Wunderground v.1.15,2018-01-16 07:21:00,
2018-01-16 02:28:00,20.9,15.7,30.47,South,171,0.0,12.0,80,0.00,,,0.00,Wunderground v.1.15,2018-01-16 07:28:00,
2018-01-16 02:34:00,20.9,15.7,30.47,South,171,0.0,12.0,80,0.00,,,0.00,Wunderground v.1.15,2018-01-16 07:34:00,
2018-01-16 02:41:00,21.0,15.8,30.47,South,171,0.0,12.0,80,0.00,,,0.00,Wunderground v.1.15,2018-01-16 07:41:00,
2018-01-16 02:47:00,21.0,15.8,30.47,South,171,0.0,12.0,80,0.00,,,0.00,Wunderground v.1.15,2018-01-16 07:47:00,
2018-01-16 02:53:00,21.1,15.6,30.46,South,171,0.0,12.0,79,0.00,,,0.00,Wunderground v.1.15,2018-01-16 07:53:00,
2018-01-16 02:59:00,21.0,15.5,30.46,South,171,0.0,12.0,79,0.00,,,0.00,Wunderground v.1.15,2018-01-16 07:59:00,
2018-01-16 03:04:00,21.1,15.6,30.46,South,171,0.0,12.0,79,0.00,,,0.00,Wunderground v.1.15,2018-01-16 08:04:00,
2018-01-16 03:10:00,21.0,15.5,30.46,South,171,0.0,12.0,79,0.00,,,0.00,Wunderground v.1.15,2018-01-16 08:10:00,
2018-01-16 03:25:00,21.1,15.9,30.47,South,171,0.0,12.0,80,0.00,,,0.00,Wunderground v.1.15,2018-01-16 08:25:00,
2018-01-16 03:31:00,21.2,16.0,30.47,South,171,0.0,12.0,80,0.00,,,0.00,Wunderground v.1.15,2018-01-16 08:31:00,
2018-01-16 03:39:00,21.2,16.0,30.47,South,171,0.0,12.0,80,0.00,,,0.00,Wunderground v.1.15,2018-01-16 08:39:00,
2018-01-16 03:45:00,21.3,16.4,30.47,South,171,0.0,12.0,81,0.00,,,0.00,Wunderground v.1.15,2018-01-16 08:45:00,
2018-01-16 03:53:00,21.4,16.5,30.46,South,171,0.0,12.0,81,0.00,,,0.00,Wunderground v.1.15,2018-01-16 08:53:00,
2018-01-16 04:05:00,21.5,16.6,30.46,South,171,0.0,12.0,81,0.00,,,0.00,Wunderground v.1.15,2018-01-16 09:05:00,
2018-01-16 04:11:00,21.6,16.7,30.46,South,171,0.0,12.0,81,0.00,,,0.00,Wunderground v.1.15,2018-01-16 09:11:00,
2018-01-16 04:16:00,21.7,16.8,30.46,South,171,0.0,12.0,81,0.00,,,0.00,Wunderground v.1.15,2018-01-16 09:16:00,
2018-01-16 04:21:00,21.7,16.8,30.46,South,171,0.0,12.0,81,0.00,,,0.00,Wunderground v.1.15,2018-01-16 09:21:00,
2018-01-16 04:33:00,21.7,17.1,30.46,South,171,0.0,12.0,82,0.00,,,0.00,Wunderground v.1.15,2018-01-16 09:33:00,
2018-01-16 04:40:00,21.8,17.4,30.47,South,171,0.0,12.0,83,0.00,,,0.00,Wunderground v.1.15,2018-01-16 09:40:00,
2018-01-16 04:50:00,21.8,17.4,30.47,South,171,0.0,12.0,83,0.00,,,0.00,Wunderground v.1.15,2018-01-16 09:50:00,
2018-01-16 04:58:00,21.9,17.5,30.47,South,171,0.0,12.0,83,0.00,,,0.00,Wunderground v.1.15,2018-01-16 09:58:00,
2018-01-16 05:06:00,21.9,17.8,30.47,South,171,0.0,12.0,84,0.00,,,0.00,Wunderground v.1.15,2018-01-16 10:06:00,
2018-01-16 05:12:00,21.9,17.8,30.47,South,171,0.0,12.0,84,0.00,,,0.00,Wunderground v.1.15,2018-01-16 10:12:00,
2018-01-16 05:18:00,21.8,18.0,30.47,South,171,0.0,12.0,85,0.00,,,0.00,Wunderground v.1.15,2018-01-16 10:18:00,
2018-01-16 05:27:00,21.8,18.0,30.47,South,171,0.0,12.0,85,0.00,,,0.00,Wunderground v.1.15,2018-01-16 10:27:00,
2018-01-16 05:32:00,21.8,18.3,30.47,South,171,0.0,12.0,86,0.00,,,0.00,Wunderground v.1.15,2018-01-16 10:32:00,
2018-01-16 05:39:00,21.7,18.2,30.47,South,171,0.0,12.0,86,0.00,,,0.00,Wunderground v.1.15,2018-01-16 10:39:00,
2018-01-16 05:49:00,21.7,18.4,30.47,South,171,0.0,12.0,87,0.00,,,0.00,Wunderground v.1.15,2018-01-16 10:49:00,
2018-01-16 05:54:00,21.8,18.5,30.48,South,171,0.0,12.0,87,0.00,,,0.00,Wunderground v.1.15,2018-01-16 10:54:00,
2018-01-16 06:03:00,21.8,18.8,30.47,South,171,0.0,12.0,88,0.00,,,0.00,Wunderground v.1.15,2018-01-16 11:03:00,
2018-01-16 06:08:00,21.9,18.9,30.47,South,171,0.0,12.0,88,0.00,,,0.00,Wunderground v.1.15,2018-01-16 11:08:00,
2018-01-16 06:14:00,22.0,19.0,30.47,South,171,0.0,12.0,88,0.00,,,0.00,Wunderground v.1.15,2018-01-16 11:14:00,
2018-01-16 06:24:00,22.0,19.3,30.47,South,171,0.0,12.0,89,0.00,,,0.00,Wunderground v.1.15,2018-01-16 11:24:00,
2018-01-16 06:29:00,22.0,19.3,30.48,South,171,0.0,12.0,89,0.00,,,0.00,Wunderground v.1.15,2018-01-16 11:29:00,
2018-01-16 06:35:00,22.0,19.3,30.47,South,171,0.0,12.0,89,0.00,,,0.00,Wunderground v.1.15,2018-01-16 11:35:00,
2018-01-16 06:40:00,22.0,19.3,30.48,South,171,0.0,12.0,89,0.00,,,0.00,Wunderground v.1.15,2018-01-16 11:40:00,
2018-01-16 06:46:00,22.0,19.3,30.48,South,171,0.0,12.0,89,0.00,,,0.00,Wunderground v.1.15,2018-01-16 11:46:00,
2018-01-16 06:51:00,21.9,19.4,30.48,South,171,0.0,12.0,90,0.00,,,0.00,Wunderground v.1.15,2018-01-16 11:51:00,
2018-01-16 06:57:00,21.9,19.4,30.48,South,171,0.0,12.0,90,0.00,,,0.00,Wunderground v.1.15,2018-01-16 11:57:00,
2018-01-16 07:02:00,21.8,19.3,30.48,South,171,0.0,12.0,90,0.00,,,0.00,Wunderground v.1.15,2018-01-16 12:02:00,
2018-01-16 07:09:00,21.7,19.5,30.48,South,171,0.0,12.0,91,0.00,,,0.00,Wunderground v.1.15,2018-01-16 12:09:00,
2018-01-16 07:15:00,21.7,19.5,30.48,South,171,0.0,12.0,91,0.00,,,0.00,Wunderground v.1.15,2018-01-16 12:15:00,
2018-01-16 07:21:00,21.6,19.4,30.48,South,171,0.0,12.0,91,0.00,,,0.00,Wunderground v.1.15,2018-01-16 12:21:00,
2018-01-16 07:26:00,21.5,19.5,30.48,South,171,0.0,12.0,92,0.00,,,0.00,Wunderground v.1.15,2018-01-16 12:26:00,
2018-01-16 07:32:00,21.5,19.5,30.48,South,171,0.0,12.0,92,0.00,,,0.00,Wunderground v.1.15,2018-01-16 12:32:00,
2018-01-16 07:37:00,21.6,19.6,30.48,South,171,0.0,12.0,92,0.00,,,0.00,Wunderground v.1.15,2018-01-16 12:37:00,
2018-01-16 07:44:00,21.7,20.0,30.48,South,171,0.0,12.0,93,0.00,,,0.00,Wunderground v.1.15,2018-01-16 12:44:00,
2018-01-16 07:51:00,21.7,20.0,30.48,South,171,0.0,12.0,93,0.00,,,0.00,Wunderground v.1.15,2018-01-16 12:51:00,
2018-01-16 07:56:00,21.8,20.1,30.48,South,171,0.0,12.0,93,0.00,,,0.00,Wunderground v.1.15,2018-01-16 12:56:00,
2018-01-16 08:06:00,22.0,20.3,30.47,South,171,0.0,12.0,93,0.00,,,0.00,Wunderground v.1.15,2018-01-16 13:06:00,
2018-01-16 08:11:00,22.2,20.5,30.47,South,171,0.0,12.0,93,0.00,,,0.00,Wunderground v.1.15,2018-01-16 13:11:00,
2018-01-16 08:17:00,22.4,20.9,30.47,South,171,0.0,12.0,94,0.00,,,0.00,Wunderground v.1.15,2018-01-16 13:17:00,
2018-01-16 08:22:00,22.5,21.0,30.47,South,171,0.0,12.0,94,0.00,,,0.00,Wunderground v.1.15,2018-01-16 13:22:00,
2018-01-16 08:31:00,22.7,21.2,30.47,South,171,0.0,12.0,94,0.00,,,0.00,Wunderground v.1.15,2018-01-16 13:31:00,
2018-01-16 08:38:00,23.0,21.5,30.48,South,171,0.0,12.0,94,0.00,,,0.00,Wunderground v.1.15,2018-01-16 13:38:00,
2018-01-16 08:49:00,23.2,21.7,30.47,South,171,0.0,12.0,94,0.00,,,0.00,Wunderground v.1.15,2018-01-16 13:49:00,
2018-01-16 08:54:00,23.2,21.7,30.48,South,171,0.0,12.0,94,0.00,,,0.00,Wunderground v.1.15,2018-01-16 13:54:00,
2018-01-16 08:59:00,23.2,21.7,30.48,South,171,0.0,12.0,94,0.00,,,0.00,Wunderground v.1.15,2018-01-16 13:59:00,
2018-01-16 09:05:00,23.3,21.8,30.48,South,171,0.0,12.0,94,0.00,,,0.00,Wunderground v.1.15,2018-01-16 14:05:00,
2018-01-16 09:11:00,23.3,21.8,30.48,South,171,0.0,12.0,94,0.00,,,0.00,Wunderground v.1.15,2018-01-16 14:11:00,
2018-01-16 09:22:00,23.1,21.4,30.48,South,171,0.0,12.0,93,0.00,,,0.00,Wunderground v.1.15,2018-01-16 14:22:00,
2018-01-16 09:30:00,23.1,21.4,30.48,South,171,0.0,12.0,93,0.00,,,0.00,Wunderground v.1.15,2018-01-16 14:30:00,
2018-01-16 09:36:00,23.2,21.7,30.48,South,173,0.0,12.0,94,0.00,,,0.00,Wunderground v.1.15,2018-01-16 14:36:00,
2018-01-16 09:42:00,23.5,22.0,30.48,South,173,0.0,12.0,94,0.00,,,0.00,Wunderground v.1.15,2018-01-16 14:42:00,
2018-01-16 09:51:00,23.9,22.4,30.48,South,173,0.0,12.0,94,0.00,,,0.00,Wunderground v.1.15,2018-01-16 14:51:00,
2018-01-16 09:58:00,24.0,22.5,30.48,South,173,0.0,12.0,94,0.00,,,0.00,Wunderground v.1.15,2018-01-16 14:58:00,
2018-01-16 10:04:00,24.1,22.6,30.48,South,173,0.0,12.0,94,0.00,,,0.00,Wunderground v.1.15,2018-01-16 15:04:00,
2018-01-16 10:10:00,24.2,22.5,30.48,South,173,0.0,12.0,93,0.00,,,0.00,Wunderground v.1.15,2018-01-16 15:10:00,
2018-01-16 10:25:00,24.0,22.3,30.48,South,172,1.0,12.0,93,0.00,,,0.00,Wunderground v.1.15,2018-01-16 15:25:00,
2018-01-16 10:34:00,24.0,22.3,30.48,SSE,168,1.0,12.0,93,0.00,,,0.00,Wunderground v.1.15,2018-01-16 15:34:00,
2018-01-16 10:39:00,24.0,22.3,30.48,SSE,155,1.0,12.0,93,0.00,,,0.00,Wunderground v.1.15,2018-01-16 15:39:00,
2018-01-16 10:44:00,23.8,22.1,30.48,SE,139,2.0,12.0,93,0.00,,,0.00,Wunderground v.1.15,2018-01-16 15:44:00,
2018-01-16 10:53:00,23.9,22.2,30.48,South,173,2.0,12.0,93,0.00,,,0.00,Wunderground v.1.15,2018-01-16 15:53:00,
2018-01-16 12:18:00,25.7,23.2,30.44,SE,144,3.0,12.0,90,0.00,,,0.00,Wunderground v.1.15,2018-01-16 17:18:00,
2018-01-16 12:24:00,25.7,23.2,30.43,South,189,3.0,12.0,90,0.00,,,0.00,Wunderground v.1.15,2018-01-16 17:24:00,